| time (UTC) | temp F | wind direction | speed MPH | gust MPH | rain 1hr in | rain 24hr in | rain mn in | humidity % | barometer mb |
| 20260504185449 | 72 | 230 | 7.0 | 11.0 | 0.00 | 0.00 | 0.00 | 36 | 1010.5 |
| 20260504183948 | 73 | 220 | 3.0 | 11.0 | 0.00 | 0.00 | 0.00 | 35 | 1010.7 |
| 20260504182446 | 71 | 203 | 6.0 | 11.0 | 0.00 | 0.00 | 0.00 | 36 | 1010.5 |
| 20260504180944 | 70 | 254 | 2.0 | 13.0 | 0.00 | 0.00 | 0.00 | 38 | 1010.8 |
| 20260504175443 | 69 | 253 | 6.0 | 13.0 | 0.00 | 0.00 | 0.00 | 39 | 1011.5 |
| 20260504173941 | 69 | 234 | 5.0 | 13.0 | 0.00 | 0.00 | 0.00 | 40 | 1011.3 |
| 20260504172437 | 69 | 248 | 3.0 | 11.0 | 0.00 | 0.00 | 0.00 | 40 | 1011.4 |
| 20260504170933 | 67 | 235 | 9.0 | 17.0 | 0.00 | 0.00 | 0.00 | 41 | 1011.5 |
| 20260504150906 | 64 | 242 | 11.0 | 13.0 | 0.00 | 0.00 | 0.00 | 47 | 1013.3 |
| 20260504140852 | 60 | 242 | 11.0 | 14.0 | 0.00 | 0.00 | 0.00 | 56 | 1013.4 |
| 20260504080747 | 52 | 245 | 4.0 | 8.0 | 0.00 | 0.00 | 0.00 | 61 | 1013.6 |
| 20260504050709 | 53 | 258 | 7.0 | 9.0 | 0.00 | 0.00 | 0.00 | 66 | 1013.0 |
| 20260504045203 | 53 | 252 | 6.0 | 8.0 | 0.00 | 0.00 | 0.00 | 66 | 1013.1 |
| 20260504043701 | 53 | 249 | 9.0 | 12.0 | 0.00 | 0.00 | 0.00 | 62 | 1013.0 |
| 20260504042158 | 53 | 255 | 6.0 | 11.0 | 0.00 | 0.00 | 0.00 | 61 | 1012.8 |
| 20260504040653 | 53 | 251 | 4.0 | 8.0 | 0.00 | 0.00 | 0.00 | 65 | 1012.7 |
| 20260504035149 | 53 | 244 | 6.0 | 8.0 | 0.00 | 0.00 | 0.00 | 64 | 1012.6 |
| 20260504033647 | 54 | 249 | 9.0 | 10.0 | 0.00 | 0.00 | 0.00 | 62 | 1012.7 |
| 20260504032144 | 54 | 254 | 3.0 | 6.0 | 0.00 | 0.00 | 0.00 | 63 | 1012.6 |
| 20260504030640 | 54 | 244 | 6.0 | 7.0 | 0.00 | 0.00 | 0.00 | 67 | 1012.6 |
| 20260504025136 | 54 | 257 | 6.0 | 8.0 | 0.00 | 0.00 | 0.00 | 65 | 1012.5 |
| 20260504023632 | 55 | 253 | 6.0 | 7.0 | 0.00 | 0.00 | 0.00 | 65 | 1012.4 |
| 20260504022132 | 55 | 245 | 4.0 | 7.0 | 0.00 | 0.00 | 0.00 | 63 | 1012.3 |
| 20260504020630 | 56 | 237 | 4.0 | 9.0 | 0.00 | 0.00 | 0.00 | 54 | 1012.5 |
| 20260504015131 | 56 | 236 | 5.0 | 8.0 | 0.00 | 0.00 | 0.00 | 58 | 1012.4 |
| 20260504013627 | 56 | 254 | 4.0 | 5.0 | 0.00 | 0.00 | 0.00 | 57 | 1012.3 |
| 20260504012125 | 57 | 255 | 3.0 | 6.0 | 0.00 | 0.00 | 0.00 | 45 | 1011.9 |
| 20260504010620 | 57 | 239 | 2.0 | 6.0 | 0.00 | 0.00 | 0.00 | 44 | 1011.8 |
| 20260504005115 | 57 | 237 | 2.0 | 4.0 | 0.00 | 0.00 | 0.00 | 45 | 1011.7 |
| 20260504003613 | 57 | 261 | 4.0 | 6.0 | 0.00 | 0.00 | 0.00 | 47 | 1011.5 |
| 20260504002110 | 58 | 273 | 4.0 | 7.0 | 0.00 | 0.00 | 0.00 | 46 | 1011.4 |
| 20260504000606 | 58 | 242 | 5.0 | 6.0 | 0.00 | 0.00 | 0.00 | 41 | 1011.2 |
| 20260503235104 | 59 | 258 | 6.0 | 6.0 | 0.00 | 0.00 | 0.00 | 38 | 1010.9 |
| 20260503233602 | 59 | 244 | 7.0 | 12.0 | 0.00 | 0.00 | 0.00 | 42 | 1010.7 |
| 20260503232058 | 61 | 259 | 3.0 | 12.0 | 0.00 | 0.00 | 0.00 | 29 | 1010.5 |
| 20260503230555 | 62 | 81 | 0.0 | 10.0 | 0.00 | 0.00 | 0.00 | 28 | 1010.5 |
| 20260503225050 | 62 | 321 | 2.0 | 7.0 | 0.00 | 0.00 | 0.00 | 28 | 1010.6 |
| 20260503223550 | 63 | 340 | 6.0 | 8.0 | 0.00 | 0.00 | 0.00 | 26 | 1010.4 |
| 20260503222047 | 62 | 1 | 4.0 | 14.0 | 0.00 | 0.00 | 0.00 | 26 | 1010.4 |
| 20260503220543 | 62 | 4 | 3.0 | 20.0 | 0.00 | 0.00 | 0.00 | 26 | 1010.6 |
| 20260503215040 | 62 | 324 | 4.0 | 17.0 | 0.00 | 0.00 | 0.00 | 26 | 1010.7 |
| 20260503213538 | 62 | 350 | 7.0 | 19.0 | 0.00 | 0.00 | 0.00 | 26 | 1010.5 |
| 20260503212036 | 62 | 341 | 8.0 | 14.0 | 0.00 | 0.00 | 0.00 | 27 | 1010.3 |
| 20260503210531 | 61 | 270 | 4.0 | 14.0 | 0.00 | 0.00 | 0.00 | 28 | 1010.4 |
| 20260503205026 | 61 | 15 | 6.0 | 15.0 | 0.00 | 0.00 | 0.00 | 27 | 1010.0 |
| 20260503203522 | 62 | 290 | 3.0 | 9.0 | 0.00 | 0.00 | 0.00 | 28 | 1010.3 |
| 20260503202021 | 60 | 265 | 9.0 | 12.0 | 0.00 | 0.00 | 0.00 | 28 | 1010.4 |
| 20260503200518 | 61 | 289 | 11.0 | 12.0 | 0.00 | 0.00 | 0.00 | 29 | 1010.6 |
| 20260503195014 | 59 | 342 | 8.0 | 18.0 | 0.00 | 0.00 | 0.00 | 29 | 1010.9 |
| 20260503193514 | 60 | 337 | 9.0 | 13.0 | 0.00 | 0.00 | 0.00 | 30 | 1010.9 |
| 20260503192014 | 60 | 101 | 3.0 | 16.0 | 0.00 | 0.00 | 0.00 | 30 | 1010.9 |
| 20260503190510 | 59 | 295 | 8.0 | 13.0 | 0.00 | 0.00 | 0.00 | 31 | 1011.0 |